This is the latest recevied weather packets stored in our database for station/object KI4NG. If no packets are shown the sender has not sent any weather packets the latest 10 day(s).
| Time | Temp. | Humidity | Pressure | Rain* | Wind** | Luminosity | Snow |
|---|---|---|---|---|---|---|---|
| 1777928935 | 24.44° C | 44% | 1012.5 hPa | 0 mm | - | 507 W/m² | - |
| 1777928632 | 24.44° C | 44% | 1012.5 hPa | 0 mm | - | 506 W/m² | - |
| 1777928329 | 25° C | 48% | 1012.7 hPa | 0 mm | - | 484 W/m² | - |
| 1777928027 | 24.44° C | 45% | 1012.7 hPa | 0 mm | - | 453 W/m² | - |
| 1777927725 | 24.44° C | 46% | 1012.5 hPa | 0 mm | - | 370 W/m² | - |
| 1777927423 | 24.44° C | 45% | 1012.8 hPa | 0 mm | - | 414 W/m² | - |
| 1777927122 | 24.44° C | 49% | 1012.8 hPa | 0 mm | - | 533 W/m² | - |
| 1777926819 | 24.44° C | 45% | 1012.8 hPa | 0 mm | - | 553 W/m² | - |
| 1777926514 | 24.44° C | 43% | 1012.9 hPa | 0 mm | - | 570 W/m² | - |
| 1777926212 | 24.44° C | 47% | 1012.9 hPa | 0 mm | - | 607 W/m² | - |
| 1777925908 | 23.89° C | 51% | 1012.7 hPa | 0 mm | - | 561 W/m² | - |
| 1777925606 | 23.33° C | 53% | 1012.8 hPa | 0 mm | - | 244 W/m² | - |
| 1777925303 | 24.44° C | 50% | 1013.2 hPa | 0 mm | - | 544 W/m² | - |
| 1777925000 | 24.44° C | 50% | 1013.1 hPa | 0 mm | - | 479 W/m² | - |
| 1777924696 | 23.33° C | 51% | 1013.2 hPa | 0 mm | - | 674 W/m² | - |
| 1777924392 | 23.33° C | 52% | 1013.2 hPa | 0 mm | - | 193 W/m² | - |
| 1777924089 | 23.89° C | 53% | 1013.3 hPa | 0 mm | - | 178 W/m² | - |
| 1777923785 | 23.89° C | 49% | 1013.4 hPa | 0 mm | - | 576 W/m² | - |
| 1777923481 | 23.33° C | 54% | 1013.5 hPa | 0 mm | - | 699 W/m² | - |
| 1777923179 | 23.33° C | 52% | 1013.3 hPa | 0 mm | - | 220 W/m² | - |
| 1777922877 | 23.89° C | 51% | 1013.5 hPa | 0 mm | - | 686 W/m² | - |
| 1777922574 | 23.89° C | 51% | 1013.8 hPa | 0 mm | - | 704 W/m² | - |
| 1777922273 | 23.89° C | 54% | 1013.6 hPa | 0 mm | - | 707 W/m² | - |
| 1777921970 | 23.89° C | 52% | 1013.7 hPa | 0 mm | - | 724 W/m² | - |
| 1777921665 | 23.89° C | 55% | 1013.9 hPa | 0 mm | - | 688 W/m² | - |
* Rain latest hour (hover to see other rain measurements)
** Current wind speed in m/s (hover to see current wind gust speed)